Year,Month,Day,Hour,Minute,Value (Times are PST for temperature in C)
2013,08,06,00,00,15.80
2013,08,06,00,01,15.80
2013,08,06,00,02,15.70
2013,08,06,00,03,15.70
2013,08,06,00,04,15.70
2013,08,06,00,05,15.70
2013,08,06,00,06,15.70
2013,08,06,00,07,15.70
2013,08,06,00,08,15.60
2013,08,06,00,09,15.60
2013,08,06,00,10,15.60
2013,08,06,00,11,15.60
2013,08,06,00,12,15.60
2013,08,06,00,13,15.60
2013,08,06,00,14,15.50
2013,08,06,00,15,15.50
2013,08,06,00,16,15.50
2013,08,06,00,17,15.40
2013,08,06,00,18,15.40
2013,08,06,00,19,15.40
2013,08,06,00,20,15.40
2013,08,06,00,21,15.40
2013,08,06,00,22,15.40
2013,08,06,00,23,15.30
2013,08,06,00,24,15.30
2013,08,06,00,25,15.30
2013,08,06,00,26,15.30
2013,08,06,00,27,15.30
2013,08,06,00,28,15.30
2013,08,06,00,29,15.30
2013,08,06,00,30,15.30
2013,08,06,00,31,15.30
2013,08,06,00,32,15.30
2013,08,06,00,33,15.20
2013,08,06,00,34,15.20
2013,08,06,00,35,15.20
2013,08,06,00,36,15.20
2013,08,06,00,37,15.10
2013,08,06,00,38,15.10
2013,08,06,00,39,15.10
2013,08,06,00,40,15.10
2013,08,06,00,41,15.10
2013,08,06,00,42,15.10
2013,08,06,00,43,15.00
2013,08,06,00,44,15.00
2013,08,06,00,45,14.90
2013,08,06,00,46,14.90
2013,08,06,00,47,14.90
2013,08,06,00,48,14.90
2013,08,06,00,49,14.80
2013,08,06,00,50,14.80
2013,08,06,00,51,14.80
2013,08,06,00,52,14.80
2013,08,06,00,53,14.80
2013,08,06,00,54,14.80
2013,08,06,00,55,14.80
2013,08,06,00,56,14.70
2013,08,06,00,57,14.70
2013,08,06,00,58,14.70
2013,08,06,00,59,14.70
2013,08,06,01,00,14.70
2013,08,06,01,01,14.60
2013,08,06,01,02,14.60
2013,08,06,01,03,14.60
2013,08,06,01,04,14.60
2013,08,06,01,05,14.50
2013,08,06,01,06,14.50
2013,08,06,01,07,14.50
2013,08,06,01,08,14.50
2013,08,06,01,09,14.50
2013,08,06,01,10,14.40
2013,08,06,01,11,14.40
2013,08,06,01,12,14.40
2013,08,06,01,13,14.40
2013,08,06,01,14,14.40
2013,08,06,01,15,14.40
2013,08,06,01,16,14.40
2013,08,06,01,17,14.40
2013,08,06,01,18,14.40
2013,08,06,01,19,14.30
2013,08,06,01,20,14.30
2013,08,06,01,21,14.30
2013,08,06,01,22,14.30
2013,08,06,01,23,14.30
2013,08,06,01,24,14.30
2013,08,06,01,25,14.30
2013,08,06,01,26,14.20
2013,08,06,01,27,14.20
2013,08,06,01,28,14.20
2013,08,06,01,29,14.20
2013,08,06,01,30,14.20
2013,08,06,01,31,14.20
2013,08,06,01,32,14.10
2013,08,06,01,33,14.10
2013,08,06,01,34,14.10
2013,08,06,01,35,14.10
2013,08,06,01,36,14.10
2013,08,06,01,37,14.10
2013,08,06,01,38,14.10
2013,08,06,01,39,14.10
2013,08,06,01,40,14.10
2013,08,06,01,41,14.10
2013,08,06,01,42,14.00
2013,08,06,01,43,14.00
2013,08,06,01,44,14.00
2013,08,06,01,45,14.00
2013,08,06,01,46,14.00
2013,08,06,01,47,13.90
2013,08,06,01,48,13.90
2013,08,06,01,49,13.90
2013,08,06,01,50,13.90
2013,08,06,01,51,13.90
2013,08,06,01,52,13.90
2013,08,06,01,53,13.90
2013,08,06,01,54,13.90
2013,08,06,01,55,13.90
2013,08,06,01,56,13.90
2013,08,06,01,57,13.90
2013,08,06,01,58,13.90
2013,08,06,01,59,13.90
2013,08,06,02,00,13.80
2013,08,06,02,01,13.80
2013,08,06,02,02,13.80
2013,08,06,02,03,13.80
2013,08,06,02,04,13.80
2013,08,06,02,05,13.80
2013,08,06,02,06,13.80
2013,08,06,02,07,13.80
2013,08,06,02,08,13.80
2013,08,06,02,09,13.80
2013,08,06,02,10,13.80
2013,08,06,02,11,13.80
2013,08,06,02,12,13.80
2013,08,06,02,13,13.80
2013,08,06,02,14,13.80
2013,08,06,02,15,13.80
2013,08,06,02,16,13.70
2013,08,06,02,17,13.70
2013,08,06,02,18,13.70
2013,08,06,02,19,13.70
2013,08,06,02,20,13.70
2013,08,06,02,21,13.70
2013,08,06,02,22,13.70
2013,08,06,02,23,13.70
2013,08,06,02,24,13.70
2013,08,06,02,25,13.70
2013,08,06,02,26,13.60
2013,08,06,02,27,13.60
2013,08,06,02,28,13.60
2013,08,06,02,29,13.60
2013,08,06,02,30,13.60
2013,08,06,02,31,13.60
2013,08,06,02,32,13.60
2013,08,06,02,33,13.60
2013,08,06,02,34,13.50
2013,08,06,02,35,13.50
2013,08,06,02,36,13.50
2013,08,06,02,37,13.50
2013,08,06,02,38,13.50
2013,08,06,02,39,13.50
2013,08,06,02,40,13.40
2013,08,06,02,41,13.40
2013,08,06,02,42,13.40
2013,08,06,02,43,13.40
2013,08,06,02,44,13.40
2013,08,06,02,45,13.40
2013,08,06,02,46,13.40
2013,08,06,02,47,13.30
2013,08,06,02,48,13.30
2013,08,06,02,49,13.30
2013,08,06,02,50,13.30
2013,08,06,02,51,13.30
2013,08,06,02,52,13.30
2013,08,06,02,53,13.30
2013,08,06,02,54,13.30
2013,08,06,02,55,13.30
2013,08,06,02,56,13.30
2013,08,06,02,57,13.30
2013,08,06,02,58,13.30
2013,08,06,02,59,13.20
2013,08,06,03,00,13.20
2013,08,06,03,01,13.20
2013,08,06,03,02,13.20
2013,08,06,03,03,13.20
2013,08,06,03,04,13.20
2013,08,06,03,05,13.20
2013,08,06,03,06,13.10
2013,08,06,03,07,13.10
2013,08,06,03,08,13.10
2013,08,06,03,09,13.10
2013,08,06,03,10,13.10
2013,08,06,03,11,13.10
2013,08,06,03,12,13.10
2013,08,06,03,13,13.10
2013,08,06,03,14,13.10
2013,08,06,03,15,13.10
2013,08,06,03,16,13.10
2013,08,06,03,17,13.00
2013,08,06,03,18,13.00
2013,08,06,03,19,13.00
2013,08,06,03,20,13.00
2013,08,06,03,21,13.00
2013,08,06,03,22,13.00
2013,08,06,03,23,13.00
2013,08,06,03,24,13.00
2013,08,06,03,25,13.00
2013,08,06,03,26,13.00
2013,08,06,03,27,12.90
2013,08,06,03,28,12.90
2013,08,06,03,29,12.90
2013,08,06,03,30,12.90
2013,08,06,03,31,12.90
2013,08,06,03,32,12.90
2013,08,06,03,33,12.90
2013,08,06,03,34,12.80
2013,08,06,03,35,12.80
2013,08,06,03,36,12.80
2013,08,06,03,37,12.80
2013,08,06,03,38,12.80
2013,08,06,03,39,12.80
2013,08,06,03,40,12.80
2013,08,06,03,41,12.70
2013,08,06,03,42,12.70
2013,08,06,03,43,12.70
2013,08,06,03,44,12.70
2013,08,06,03,45,12.70
2013,08,06,03,46,12.70
2013,08,06,03,47,12.70
2013,08,06,03,48,12.70
2013,08,06,03,49,12.70
2013,08,06,03,50,12.70
2013,08,06,03,51,12.70
2013,08,06,03,52,12.70
2013,08,06,03,53,12.70
2013,08,06,03,54,12.70
2013,08,06,03,55,12.70
2013,08,06,03,56,12.70
2013,08,06,03,57,12.70
2013,08,06,03,58,12.70
2013,08,06,03,59,12.60
2013,08,06,04,00,12.60
2013,08,06,04,01,12.60
2013,08,06,04,02,12.60
2013,08,06,04,03,12.60
2013,08,06,04,04,12.60
2013,08,06,04,05,12.60
2013,08,06,04,06,12.60
2013,08,06,04,07,12.60
2013,08,06,04,08,12.50
2013,08,06,04,09,12.50
2013,08,06,04,10,12.50
2013,08,06,04,11,12.50
2013,08,06,04,12,12.50
2013,08,06,04,13,12.50
2013,08,06,04,14,12.40
2013,08,06,04,15,12.40
2013,08,06,04,16,12.40
2013,08,06,04,17,12.40
2013,08,06,04,18,12.40
2013,08,06,04,19,12.40
2013,08,06,04,20,12.40
2013,08,06,04,21,12.30
2013,08,06,04,22,12.30
2013,08,06,04,23,12.30
2013,08,06,04,24,12.30
2013,08,06,04,25,12.30
2013,08,06,04,26,12.30
2013,08,06,04,27,12.30
2013,08,06,04,28,12.20
2013,08,06,04,29,12.20
2013,08,06,04,30,12.20
2013,08,06,04,31,12.20
2013,08,06,04,32,12.20
2013,08,06,04,33,12.20
2013,08,06,04,34,12.10
2013,08,06,04,35,12.10
2013,08,06,04,36,12.10
2013,08,06,04,37,12.10
2013,08,06,04,38,12.00
2013,08,06,04,39,12.00
2013,08,06,04,40,12.00
2013,08,06,04,41,12.00
2013,08,06,04,42,12.00
2013,08,06,04,43,12.00
2013,08,06,04,44,11.90
2013,08,06,04,45,11.90
2013,08,06,04,46,11.90
2013,08,06,04,47,11.90
2013,08,06,04,48,11.90
2013,08,06,04,49,11.90
2013,08,06,04,50,11.90
2013,08,06,04,51,11.90
2013,08,06,04,52,11.90
2013,08,06,04,53,11.90
2013,08,06,04,54,11.90
2013,08,06,04,55,11.90
2013,08,06,04,56,11.90
2013,08,06,04,57,11.90
2013,08,06,04,58,11.90
2013,08,06,04,59,11.90
2013,08,06,05,00,11.90
2013,08,06,05,01,11.80
2013,08,06,05,02,11.80
2013,08,06,05,03,11.80
2013,08,06,05,04,11.80
2013,08,06,05,05,11.80
2013,08,06,05,06,11.80
2013,08,06,05,07,11.80
2013,08,06,05,08,11.80
2013,08,06,05,09,11.80
2013,08,06,05,10,11.80
2013,08,06,05,11,11.80
2013,08,06,05,12,11.80
2013,08,06,05,13,11.80
2013,08,06,05,14,11.80
2013,08,06,05,15,11.80
2013,08,06,05,16,11.80
2013,08,06,05,17,11.80
2013,08,06,05,18,11.80
2013,08,06,05,19,11.80
2013,08,06,05,20,11.80
2013,08,06,05,21,11.70
2013,08,06,05,22,11.70
2013,08,06,05,23,11.70
2013,08,06,05,24,11.70
2013,08,06,05,25,11.70
2013,08,06,05,26,11.70
2013,08,06,05,27,11.70
2013,08,06,05,28,11.70
2013,08,06,05,29,11.70
2013,08,06,05,30,11.70
2013,08,06,05,31,11.70
2013,08,06,05,32,11.70
2013,08,06,05,33,11.70
2013,08,06,05,34,11.70
2013,08,06,05,35,11.70
2013,08,06,05,36,11.70
2013,08,06,05,37,11.70
2013,08,06,05,38,11.70
2013,08,06,05,39,11.70
2013,08,06,05,40,11.70
2013,08,06,05,41,11.70
2013,08,06,05,42,11.70
2013,08,06,05,43,11.70
2013,08,06,05,44,11.70
2013,08,06,05,45,11.60
2013,08,06,05,46,11.60
2013,08,06,05,47,11.60
2013,08,06,05,48,11.60
2013,08,06,05,49,11.60
2013,08,06,05,50,11.60
2013,08,06,05,51,11.60
2013,08,06,05,52,11.60
2013,08,06,05,53,11.60
2013,08,06,05,54,11.60
2013,08,06,05,55,11.60
2013,08,06,05,56,11.60
2013,08,06,05,57,11.60
2013,08,06,05,58,11.60
2013,08,06,05,59,11.50
2013,08,06,06,00,11.50
2013,08,06,06,01,11.50
2013,08,06,06,02,11.50
2013,08,06,06,03,11.50
2013,08,06,06,04,11.50
2013,08,06,06,05,11.40
2013,08,06,06,06,11.40
2013,08,06,06,07,11.40
2013,08,06,06,08,11.40
2013,08,06,06,09,11.40
2013,08,06,06,10,11.40
2013,08,06,06,11,11.40
2013,08,06,06,12,11.40
2013,08,06,06,13,11.40
2013,08,06,06,14,11.40
2013,08,06,06,15,11.40
2013,08,06,06,16,11.40
2013,08,06,06,17,11.30
2013,08,06,06,18,11.30
2013,08,06,06,19,11.30
2013,08,06,06,20,11.30
2013,08,06,06,21,11.30
2013,08,06,06,22,11.30
2013,08,06,06,23,11.30
2013,08,06,06,24,11.30
2013,08,06,06,25,11.30
2013,08,06,06,26,11.30
2013,08,06,06,27,11.30
2013,08,06,06,28,11.30
2013,08,06,06,29,11.30
2013,08,06,06,30,11.30
2013,08,06,06,31,11.30
2013,08,06,06,32,11.30
2013,08,06,06,33,11.30
2013,08,06,06,34,11.30
2013,08,06,06,35,11.30
2013,08,06,06,36,11.30
2013,08,06,06,37,11.30
2013,08,06,06,38,11.40
2013,08,06,06,39,11.40
2013,08,06,06,40,11.40
2013,08,06,06,41,11.40
2013,08,06,06,42,11.50
2013,08,06,06,43,11.50
2013,08,06,06,44,11.60
2013,08,06,06,45,11.60
2013,08,06,06,46,11.60
2013,08,06,06,47,11.70
2013,08,06,06,48,11.70
2013,08,06,06,49,11.70
2013,08,06,06,50,11.70
2013,08,06,06,51,11.70
2013,08,06,06,52,11.80
2013,08,06,06,53,11.80
2013,08,06,06,54,11.80
2013,08,06,06,55,11.80
2013,08,06,06,56,11.90
2013,08,06,06,57,11.90
2013,08,06,06,58,12.00
2013,08,06,06,59,12.00
2013,08,06,07,00,12.10
2013,08,06,07,01,12.20
2013,08,06,07,02,12.20
2013,08,06,07,03,12.30
2013,08,06,07,04,12.30
2013,08,06,07,05,12.40
2013,08,06,07,06,12.40
2013,08,06,07,07,12.50
2013,08,06,07,08,12.60
2013,08,06,07,09,12.60
2013,08,06,07,10,12.70
2013,08,06,07,11,12.80
2013,08,06,07,12,12.80
2013,08,06,07,13,12.90
2013,08,06,07,14,13.00
2013,08,06,07,15,13.10
2013,08,06,07,16,13.20
2013,08,06,07,17,13.30
2013,08,06,07,18,13.40
2013,08,06,07,19,13.50
2013,08,06,07,20,13.60
2013,08,06,07,21,13.70
2013,08,06,07,22,13.80
2013,08,06,07,23,13.80
2013,08,06,07,24,13.90
2013,08,06,07,25,14.00
2013,08,06,07,26,14.10
2013,08,06,07,27,14.20
2013,08,06,07,28,14.30
2013,08,06,07,29,14.40
2013,08,06,07,30,14.50
2013,08,06,07,31,14.60
2013,08,06,07,32,14.70
2013,08,06,07,33,14.80
2013,08,06,07,34,14.80
2013,08,06,07,35,15.00
2013,08,06,07,36,15.10
2013,08,06,07,37,15.20
2013,08,06,07,38,15.30
2013,08,06,07,39,15.40
2013,08,06,07,40,15.60
2013,08,06,07,41,15.60
2013,08,06,07,42,15.70
2013,08,06,07,43,15.80
2013,08,06,07,44,15.80
2013,08,06,07,45,15.90
2013,08,06,07,46,16.00
2013,08,06,07,47,16.00
2013,08,06,07,48,16.10
2013,08,06,07,49,16.10
2013,08,06,07,50,16.20
2013,08,06,07,51,16.30
2013,08,06,07,52,16.40
2013,08,06,07,53,16.50
2013,08,06,07,54,16.60
2013,08,06,07,55,16.70
2013,08,06,07,56,16.80
2013,08,06,07,57,16.80
2013,08,06,07,58,16.90
2013,08,06,07,59,17.00
2013,08,06,08,00,17.00
2013,08,06,08,01,17.10
2013,08,06,08,02,17.20
2013,08,06,08,03,17.30
2013,08,06,08,04,17.40
2013,08,06,08,05,17.40
2013,08,06,08,06,17.50
2013,08,06,08,07,17.50
2013,08,06,08,08,17.60
2013,08,06,08,09,17.70
2013,08,06,08,10,17.70
2013,08,06,08,11,17.70
2013,08,06,08,12,17.70
2013,08,06,08,13,17.80
2013,08,06,08,14,17.80
2013,08,06,08,15,17.90
2013,08,06,08,16,18.00
2013,08,06,08,17,18.00
2013,08,06,08,18,18.10
2013,08,06,08,19,18.10
2013,08,06,08,20,18.20
2013,08,06,08,21,18.30
2013,08,06,08,22,18.30
2013,08,06,08,23,18.40
2013,08,06,08,24,18.50
2013,08,06,08,25,18.50
2013,08,06,08,26,18.60
2013,08,06,08,27,18.60
2013,08,06,08,28,18.60
2013,08,06,08,29,18.60
2013,08,06,08,30,18.70
2013,08,06,08,31,18.70
2013,08,06,08,32,18.70
2013,08,06,08,33,18.80
2013,08,06,08,34,18.80
2013,08,06,08,35,18.80
2013,08,06,08,36,18.80
2013,08,06,08,37,18.90
2013,08,06,08,38,19.00
2013,08,06,08,39,19.10
2013,08,06,08,40,19.20
2013,08,06,08,41,19.20
2013,08,06,08,42,19.20
2013,08,06,08,43,19.10
2013,08,06,08,44,19.10
2013,08,06,08,45,19.00
2013,08,06,08,46,19.00
2013,08,06,08,47,19.00
2013,08,06,08,48,19.00
2013,08,06,08,49,19.00
2013,08,06,08,50,19.00
2013,08,06,08,51,19.00
2013,08,06,08,52,18.90
2013,08,06,08,53,18.90
2013,08,06,08,54,18.90
2013,08,06,08,55,18.90
2013,08,06,08,56,19.00
2013,08,06,08,57,19.00
2013,08,06,08,58,19.10
2013,08,06,08,59,19.20
2013,08,06,09,00,19.30
2013,08,06,09,01,19.30
2013,08,06,09,02,19.40
2013,08,06,09,03,19.40
2013,08,06,09,04,19.40
2013,08,06,09,05,19.40
2013,08,06,09,06,19.40
2013,08,06,09,07,19.40
2013,08,06,09,08,19.40
2013,08,06,09,09,19.40
2013,08,06,09,10,19.50
2013,08,06,09,11,19.50
2013,08,06,09,12,19.60
2013,08,06,09,13,19.70
2013,08,06,09,14,19.80
2013,08,06,09,15,19.90
2013,08,06,09,16,20.00
2013,08,06,09,17,20.00
2013,08,06,09,18,20.10
2013,08,06,09,19,20.20
2013,08,06,09,20,20.20
2013,08,06,09,21,20.10
2013,08,06,09,22,20.10
2013,08,06,09,23,20.10
2013,08,06,09,24,20.00
2013,08,06,09,25,19.90
2013,08,06,09,26,19.90
2013,08,06,09,27,19.80
2013,08,06,09,28,19.70
2013,08,06,09,29,19.70
2013,08,06,09,30,19.80
2013,08,06,09,31,19.90
2013,08,06,09,32,20.00
2013,08,06,09,33,20.00
2013,08,06,09,34,20.10
2013,08,06,09,35,20.20
2013,08,06,09,36,20.20
2013,08,06,09,37,20.20
2013,08,06,09,38,20.30
2013,08,06,09,39,20.30
2013,08,06,09,40,20.30
2013,08,06,09,41,20.30
2013,08,06,09,42,20.20
2013,08,06,09,43,20.10
2013,08,06,09,44,20.00
2013,08,06,09,45,19.90
2013,08,06,09,46,19.80
2013,08,06,09,47,19.70
2013,08,06,09,48,19.60
2013,08,06,09,49,19.60
2013,08,06,09,50,19.50
2013,08,06,09,51,19.50
2013,08,06,09,52,19.40
2013,08,06,09,53,19.40
2013,08,06,09,54,19.40
2013,08,06,09,55,19.40
2013,08,06,09,56,19.50
2013,08,06,09,57,19.60
2013,08,06,09,58,19.60
2013,08,06,09,59,19.60
2013,08,06,10,00,19.60
2013,08,06,10,01,19.60
2013,08,06,10,02,19.60
2013,08,06,10,03,19.70
2013,08,06,10,04,19.60
2013,08,06,10,05,19.60
2013,08,06,10,06,19.50
2013,08,06,10,07,19.50
2013,08,06,10,08,19.50
2013,08,06,10,09,19.50
2013,08,06,10,10,19.50
2013,08,06,10,11,19.50
2013,08,06,10,12,19.50
2013,08,06,10,13,19.50
2013,08,06,10,14,19.60
2013,08,06,10,15,19.70
2013,08,06,10,16,19.70
2013,08,06,10,17,19.70
2013,08,06,10,18,19.70
2013,08,06,10,19,19.80
2013,08,06,10,20,19.80
2013,08,06,10,21,19.80
2013,08,06,10,22,19.80
2013,08,06,10,23,19.80
2013,08,06,10,24,19.90
2013,08,06,10,25,19.90
2013,08,06,10,26,19.90
2013,08,06,10,27,19.90
2013,08,06,10,28,19.90
2013,08,06,10,29,19.90
2013,08,06,10,30,19.90
2013,08,06,10,31,20.00
2013,08,06,10,32,20.10
2013,08,06,10,33,20.20
2013,08,06,10,34,20.30
2013,08,06,10,35,20.30
2013,08,06,10,36,20.30
2013,08,06,10,37,20.30
2013,08,06,10,38,20.20
2013,08,06,10,39,20.20
2013,08,06,10,40,20.10
2013,08,06,10,41,20.10
2013,08,06,10,42,20.10
2013,08,06,10,43,20.10
2013,08,06,10,44,20.10
2013,08,06,10,45,20.20
2013,08,06,10,46,20.30
2013,08,06,10,47,20.30
2013,08,06,10,48,20.30
2013,08,06,10,49,20.30
2013,08,06,10,50,20.20
2013,08,06,10,51,20.20
2013,08,06,10,52,20.20
2013,08,06,10,53,20.20
2013,08,06,10,54,20.30
2013,08,06,10,55,20.30
2013,08,06,10,56,20.30
2013,08,06,10,57,20.30
2013,08,06,10,58,20.30
2013,08,06,10,59,20.30
2013,08,06,11,00,20.30
2013,08,06,11,01,20.30
2013,08,06,11,02,20.30
2013,08,06,11,03,20.30
2013,08,06,11,04,20.30
2013,08,06,11,05,20.30
2013,08,06,11,06,20.30
2013,08,06,11,07,20.30
2013,08,06,11,08,20.30
2013,08,06,11,09,20.30
2013,08,06,11,10,20.40
2013,08,06,11,11,20.40
2013,08,06,11,12,20.40
2013,08,06,11,13,20.40
2013,08,06,11,14,20.50
2013,08,06,11,15,20.60
2013,08,06,11,16,20.70
2013,08,06,11,17,20.80
2013,08,06,11,18,20.90
2013,08,06,11,19,21.00
2013,08,06,11,20,21.20
2013,08,06,11,21,21.30
2013,08,06,11,22,21.40
2013,08,06,11,23,21.60
2013,08,06,11,24,21.70
2013,08,06,11,25,21.80
2013,08,06,11,26,21.90
2013,08,06,11,27,21.90
2013,08,06,11,28,21.90
2013,08,06,11,29,21.80
2013,08,06,11,30,21.80
2013,08,06,11,31,21.90
2013,08,06,11,32,21.90
2013,08,06,11,33,21.90
2013,08,06,11,34,21.90
2013,08,06,11,35,22.00
2013,08,06,11,36,22.00
2013,08,06,11,37,22.10
2013,08,06,11,38,22.10
2013,08,06,11,39,22.10
2013,08,06,11,40,22.20
2013,08,06,11,41,22.30
2013,08,06,11,42,22.30
2013,08,06,11,43,22.40
2013,08,06,11,44,22.50
2013,08,06,11,45,22.60
2013,08,06,11,46,22.70
2013,08,06,11,47,22.80
2013,08,06,11,48,22.80
2013,08,06,11,49,22.80
2013,08,06,11,50,22.90
2013,08,06,11,51,22.90
2013,08,06,11,52,22.90
2013,08,06,11,53,22.90
2013,08,06,11,54,22.90
2013,08,06,11,55,22.90
2013,08,06,11,56,22.90
2013,08,06,11,57,23.00
2013,08,06,11,58,23.00
2013,08,06,11,59,23.10
2013,08,06,12,00,23.10
2013,08,06,12,01,23.00
2013,08,06,12,02,22.90
2013,08,06,12,03,22.70
2013,08,06,12,04,22.60
2013,08,06,12,05,22.60
2013,08,06,12,06,22.60
2013,08,06,12,07,22.60
2013,08,06,12,08,22.50
2013,08,06,12,09,22.50
2013,08,06,12,10,22.40
2013,08,06,12,11,22.30
2013,08,06,12,12,22.30
2013,08,06,12,13,22.30
2013,08,06,12,14,22.30
2013,08,06,12,15,22.30
2013,08,06,12,16,22.30
2013,08,06,12,17,22.20
2013,08,06,12,18,22.20
2013,08,06,12,19,22.30
2013,08,06,12,20,22.40
2013,08,06,12,21,22.50
2013,08,06,12,22,22.60
2013,08,06,12,23,22.70
2013,08,06,12,24,22.80
2013,08,06,12,25,22.80
2013,08,06,12,26,22.90
2013,08,06,12,27,22.90
2013,08,06,12,28,22.90
2013,08,06,12,29,22.90
2013,08,06,12,30,22.90
2013,08,06,12,31,22.90
2013,08,06,12,32,22.90
2013,08,06,12,33,23.00
2013,08,06,12,34,22.90
2013,08,06,12,35,22.90
2013,08,06,12,36,22.90
2013,08,06,12,37,22.80
2013,08,06,12,38,22.80
2013,08,06,12,39,22.80
2013,08,06,12,40,22.80
2013,08,06,12,41,22.70
2013,08,06,12,42,22.70
2013,08,06,12,43,22.70
2013,08,06,12,44,22.70
2013,08,06,12,45,22.70
2013,08,06,12,46,22.60
2013,08,06,12,47,22.60
2013,08,06,12,48,22.70
2013,08,06,12,49,22.80
2013,08,06,12,50,22.80
2013,08,06,12,51,22.80
2013,08,06,12,52,22.90
2013,08,06,12,53,22.80
2013,08,06,12,54,22.80
2013,08,06,12,55,22.90
2013,08,06,12,56,22.90
2013,08,06,12,57,22.90
2013,08,06,12,58,22.80
2013,08,06,12,59,22.80
2013,08,06,13,00,22.80
2013,08,06,13,01,22.80
2013,08,06,13,02,22.80
2013,08,06,13,03,22.70
2013,08,06,13,04,22.60
2013,08,06,13,05,22.60
2013,08,06,13,06,22.60
2013,08,06,13,07,22.60
2013,08,06,13,08,22.60
2013,08,06,13,09,22.70
2013,08,06,13,10,22.60
2013,08,06,13,11,22.70
2013,08,06,13,12,22.70
2013,08,06,13,13,22.70
2013,08,06,13,14,22.70
2013,08,06,13,15,22.60
2013,08,06,13,16,22.50
2013,08,06,13,17,22.50
2013,08,06,13,18,22.40
2013,08,06,13,19,22.50
2013,08,06,13,20,22.50
2013,08,06,13,21,22.50
2013,08,06,13,22,22.50
2013,08,06,13,23,22.50
2013,08,06,13,24,22.60
2013,08,06,13,25,22.70
2013,08,06,13,26,22.70
2013,08,06,13,27,22.80
2013,08,06,13,28,22.80
2013,08,06,13,29,22.80
2013,08,06,13,30,22.80
2013,08,06,13,31,22.80
2013,08,06,13,32,22.80
2013,08,06,13,33,22.90
2013,08,06,13,34,22.90
2013,08,06,13,35,22.90
2013,08,06,13,36,22.90
2013,08,06,13,37,22.90
2013,08,06,13,38,23.00
2013,08,06,13,39,23.10
2013,08,06,13,40,23.20
2013,08,06,13,41,23.20
2013,08,06,13,42,23.20
2013,08,06,13,43,23.30
2013,08,06,13,44,23.30
2013,08,06,13,45,23.30
2013,08,06,13,46,23.40
2013,08,06,13,47,23.40
2013,08,06,13,48,23.50
2013,08,06,13,49,23.60
2013,08,06,13,50,23.60
2013,08,06,13,51,23.60
2013,08,06,13,52,23.70
2013,08,06,13,53,23.70
2013,08,06,13,54,23.80
2013,08,06,13,55,23.80
2013,08,06,13,56,23.90
2013,08,06,13,57,24.00
2013,08,06,13,58,24.00
2013,08,06,13,59,24.00
2013,08,06,14,00,24.00
2013,08,06,14,01,24.00
2013,08,06,14,02,24.00
2013,08,06,14,03,24.00
2013,08,06,14,04,24.10
2013,08,06,14,05,24.10
2013,08,06,14,06,24.20
2013,08,06,14,07,24.30
2013,08,06,14,08,24.30
2013,08,06,14,09,24.30
2013,08,06,14,10,24.40
2013,08,06,14,11,24.50
2013,08,06,14,12,24.60
2013,08,06,14,13,24.60
2013,08,06,14,14,24.70
2013,08,06,14,15,24.70
2013,08,06,14,16,24.60
2013,08,06,14,17,24.60
2013,08,06,14,18,24.50
2013,08,06,14,19,24.40
2013,08,06,14,20,24.40
2013,08,06,14,21,24.30
2013,08,06,14,22,24.30
2013,08,06,14,23,24.30
2013,08,06,14,24,24.20
2013,08,06,14,25,24.20
2013,08,06,14,26,24.20
2013,08,06,14,27,24.30
2013,08,06,14,28,24.30
2013,08,06,14,29,24.40
2013,08,06,14,30,24.50
2013,08,06,14,31,24.60
2013,08,06,14,32,24.60
2013,08,06,14,33,24.60
2013,08,06,14,34,24.50
2013,08,06,14,35,24.50
2013,08,06,14,36,24.40
2013,08,06,14,37,24.40
2013,08,06,14,38,24.40
2013,08,06,14,39,24.40
2013,08,06,14,40,24.50
2013,08,06,14,41,24.50
2013,08,06,14,42,24.60
2013,08,06,14,43,24.60
2013,08,06,14,44,24.70
2013,08,06,14,45,24.80
2013,08,06,14,46,24.80
2013,08,06,14,47,24.80
2013,08,06,14,48,24.80
2013,08,06,14,49,24.80
2013,08,06,14,50,24.80
2013,08,06,14,51,24.80
2013,08,06,14,52,24.90
2013,08,06,14,53,24.90
2013,08,06,14,54,24.90
2013,08,06,14,55,24.90
2013,08,06,14,56,24.90
2013,08,06,14,57,24.80
2013,08,06,14,58,24.80
2013,08,06,14,59,24.80
2013,08,06,15,00,24.80
2013,08,06,15,01,24.80
2013,08,06,15,02,24.90
2013,08,06,15,03,24.90
2013,08,06,15,04,24.90
2013,08,06,15,05,24.90
2013,08,06,15,06,24.90
2013,08,06,15,07,24.90
2013,08,06,15,08,24.90
2013,08,06,15,09,24.90
2013,08,06,15,10,24.90
2013,08,06,15,11,24.90
2013,08,06,15,12,24.90
2013,08,06,15,13,24.90
2013,08,06,15,14,25.00
2013,08,06,15,15,25.00
2013,08,06,15,16,25.10
2013,08,06,15,17,25.20
2013,08,06,15,18,25.20
2013,08,06,15,19,25.20
2013,08,06,15,20,25.20
2013,08,06,15,21,25.30
2013,08,06,15,22,25.30
2013,08,06,15,23,25.50
2013,08,06,15,24,25.60
2013,08,06,15,25,25.80
2013,08,06,15,26,25.80
2013,08,06,15,27,25.80
2013,08,06,15,28,25.80
2013,08,06,15,29,25.80
2013,08,06,15,30,25.90
2013,08,06,15,31,26.00
2013,08,06,15,32,26.00
2013,08,06,15,33,26.10
2013,08,06,15,34,26.10
2013,08,06,15,35,26.10
2013,08,06,15,36,26.10
2013,08,06,15,37,26.10
2013,08,06,15,38,26.10
2013,08,06,15,39,26.10
2013,08,06,15,40,26.20
2013,08,06,15,41,26.20
2013,08,06,15,42,26.30
2013,08,06,15,43,26.30
2013,08,06,15,44,26.30
2013,08,06,15,45,26.30
2013,08,06,15,46,26.30
2013,08,06,15,47,26.40
2013,08,06,15,48,26.40
2013,08,06,15,49,26.40
2013,08,06,15,50,26.50
2013,08,06,15,51,26.50
2013,08,06,15,52,26.50
2013,08,06,15,53,26.60
2013,08,06,15,54,26.70
2013,08,06,15,55,26.80
2013,08,06,15,56,26.90
2013,08,06,15,57,27.00
2013,08,06,15,58,27.00
2013,08,06,15,59,27.00
2013,08,06,16,00,27.00
2013,08,06,16,01,27.00
2013,08,06,16,02,27.10
2013,08,06,16,03,27.10
2013,08,06,16,04,27.00
2013,08,06,16,05,27.00
2013,08,06,16,06,27.00
2013,08,06,16,07,27.00
2013,08,06,16,08,27.00
2013,08,06,16,09,27.00
2013,08,06,16,10,27.00
2013,08,06,16,11,27.00
2013,08,06,16,12,26.90
2013,08,06,16,13,26.90
2013,08,06,16,14,26.90
2013,08,06,16,15,26.90
2013,08,06,16,16,26.80
2013,08,06,16,17,26.80
2013,08,06,16,18,26.70
2013,08,06,16,19,26.70
2013,08,06,16,20,26.60
2013,08,06,16,21,26.50
2013,08,06,16,22,26.50
2013,08,06,16,23,26.40
2013,08,06,16,24,26.40
2013,08,06,16,25,26.40
2013,08,06,16,26,26.30
2013,08,06,16,27,26.30
2013,08,06,16,28,26.30
2013,08,06,16,29,26.30
2013,08,06,16,30,26.40
2013,08,06,16,31,26.40
2013,08,06,16,32,26.40
2013,08,06,16,33,26.50
2013,08,06,16,34,26.60
2013,08,06,16,35,26.70
2013,08,06,16,36,26.70
2013,08,06,16,37,26.80
2013,08,06,16,38,26.80
2013,08,06,16,39,26.90
2013,08,06,16,40,26.90
2013,08,06,16,41,27.00
2013,08,06,16,42,27.10
2013,08,06,16,43,27.20
2013,08,06,16,44,27.20
2013,08,06,16,45,27.30
2013,08,06,16,46,27.30
2013,08,06,16,47,27.40
2013,08,06,16,48,27.40
2013,08,06,16,49,27.40
2013,08,06,16,50,27.40
2013,08,06,16,51,27.40
2013,08,06,16,52,27.50
2013,08,06,16,53,27.50
2013,08,06,16,54,27.60
2013,08,06,16,55,27.60
2013,08,06,16,56,27.60
2013,08,06,16,57,27.60
2013,08,06,16,58,27.60
2013,08,06,16,59,27.60
2013,08,06,17,00,27.60
2013,08,06,17,01,27.60
2013,08,06,17,02,27.60
2013,08,06,17,03,27.60
2013,08,06,17,04,27.60
2013,08,06,17,05,27.60
2013,08,06,17,06,27.50
2013,08,06,17,07,27.50
2013,08,06,17,08,27.40
2013,08,06,17,09,27.40
2013,08,06,17,10,27.30
2013,08,06,17,11,27.20
2013,08,06,17,12,27.10
2013,08,06,17,13,27.10
2013,08,06,17,14,27.00
2013,08,06,17,15,27.00
2013,08,06,17,16,27.00
2013,08,06,17,17,27.10
2013,08,06,17,18,27.10
2013,08,06,17,19,27.10